Weather past 2 weeks in Mamoutzou, Mayotte

Now
81 °F

Passing clouds.


Feels Like: 85 °F
Forecast: 81 / 85 °F
Wind: 3 mph from Southeast

Location: Dzaoudzi / Pamanzi Mayotte

Current Time: Apr 20, 2015 at 4:18:10 AM

Latest Report: Apr 20, 2015 at 4:00 AM


Visibility: N/A

Pressure: 29.86 "Hg

Humidity: 79%

Dew point: 73 °F

Location of MamoutzouLocation

Historic Weather in Mamoutzou — Graph

°F

Mamoutzou temperature yesterday

Maximum temperature yesterday: 90 °F (at 10:30 AM)
Minimum temperature yesterday: 79 °F (at 1:30 AM)
Average temperature yesterday: 84 °F

Past Weeks' High & Low Weather Summary

 TemperatureHumidityPressure
High90 °F (Apr 7, 2:00 PM)94% (Apr 11, 3:30 AM)30.01 "Hg (Apr 11, 3:30 AM)
Low77 °F (Apr 5, 3:00 AM)59% (Apr 10, 1:30 PM)29.77 "Hg (Apr 5, 3:00 AM)
Average84 °F75%29.88 "Hg
* Reported Apr 5 3:00 AM — Apr 20 3:30 AM, Mamoutzou, Weather by CustomWeather, © 2015

Note: Actual official high and low records may vary slightly from our data, if they occured in-between our weather recording intervals... More about our weather records

Advertising

Mamoutzou weather history for previous 24 hours

 ConditionsComfort  
Time TempWeatherWind HumidityBarometerVisibility
3:30 AM
Mon, Apr 20
82 °FWarm.5 mph74%29.86 "HgN/A
3:00 AM82 °FWarm.6 mph74%29.86 "HgN/A
2:30 AM81 °FWarm.6 mph79%29.86 "HgN/A
2:00 AM81 °FWarm.5 mph79%29.86 "HgN/A
1:30 AM79 °FWarm.6 mph84%29.86 "HgN/A
1:00 AM79 °FWarm.3 mph84%29.86 "HgN/A
12:30 AM79 °FWarm.3 mph84%29.89 "HgN/A
12:00 AM81 °FWarm.3 mph79%29.89 "HgN/A
11:30 PM
Sun, Apr 19
81 °FWarm.5 mph74%29.89 "HgN/A
11:00 PM82 °FWarm.6 mph74%29.89 "HgN/A
10:30 PM82 °FWarm.7 mph74%29.92 "HgN/A
10:00 PM82 °FWarm.7 mph74%29.92 "HgN/A
9:30 PM82 °FWarm.7 mph70%29.92 "HgN/A
9:00 PM82 °FWarm.8 mph74%29.92 "HgN/A
8:30 PM82 °FWarm.7 mph74%29.92 "HgN/A
8:00 PM82 °FWarm.6 mph74%29.89 "HgN/A
7:30 PM82 °FPassing clouds.7 mph74%29.89 "HgN/A
7:00 PM82 °FPassing clouds.7 mph74%29.89 "HgN/A
6:30 PM82 °FWarm.7 mph74%29.86 "HgN/A
6:00 PM84 °FPassing clouds.6 mph70%29.86 "HgN/A
5:30 PM86 °FPassing clouds.8 mph66%29.86 "HgN/A
5:00 PM86 °FScattered clouds.7 mph70%29.86 "HgN/A
4:30 PM88 °FScattered clouds.7 mph66%29.86 "HgN/A
4:00 PM88 °FPassing clouds.8 mph66%29.83 "HgN/A
3:30 PM88 °FScattered clouds.9 mph66%29.83 "HgN/A
3:00 PM88 °FScattered clouds.9 mph66%29.83 "HgN/A
2:30 PM88 °FScattered clouds.12 mph70%29.83 "HgN/A
2:00 PM90 °FScattered clouds.12 mph67%29.83 "HgN/A
1:30 PM90 °FScattered clouds.9 mph63%29.86 "HgN/A
1:00 PM90 °FScattered clouds.10 mph63%29.86 "HgN/A
12:30 PM90 °FScattered clouds.12 mph63%29.86 "HgN/A
12:00 PM90 °FScattered clouds.12 mph67%29.89 "HgN/A
11:30 AM90 °FPassing clouds.9 mph63%29.89 "HgN/A
11:00 AM90 °FPassing clouds.10 mph63%29.92 "HgN/A
10:30 AM90 °FScattered clouds.10 mph67%29.92 "HgN/A
10:00 AM88 °FScattered clouds.10 mph70%29.92 "HgN/A
9:30 AM88 °FPassing clouds.9 mph66%29.92 "HgN/A
9:00 AM88 °FPassing clouds.9 mph66%29.92 "HgN/A
8:43 AM88 °FPassing clouds.9 mph66%29.92 "HgN/A
8:00 AM86 °FPassing clouds.6 mph66%29.92 "HgN/A
7:30 AM86 °FPassing clouds.6 mph66%29.92 "HgN/A
7:00 AM84 °FPassing clouds.6 mph74%29.92 "HgN/A
6:30 AM81 °FPassing clouds.6 mph79%29.89 "HgN/A
6:00 AM81 °FPassing clouds.6 mph74%29.89 "HgN/A
5:30 AM81 °FPassing clouds.6 mph74%29.89 "HgN/A
5:00 AM81 °FPassing clouds.6 mph74%29.86 "HgN/A
4:30 AM81 °FWarm.6 mph74%29.86 "HgN/A
4:00 AM81 °FWarm.6 mph74%29.86 "HgN/A
Weather by CustomWeather, © 2015

See weather overviewHow to use our weather pages